Location: Caseificio
(44.7500°N, 11.0500°E)
Time: 16:20:12
(UTC+00:00)

Thor Agena Rocket - Pass Details

Date: 26 May 2022
Orbit: 759 x 807 km, 99.0° (Epoch: 07 July)

Event Time Altitude Azimuth Distance (km) Brightness Sun altitude
Rises 00:06:40 0° 17° (NNE) 3,323 8.3 -23.0°
Reaches altitude 10° 00:09:02 10° 21° (NNE) 2,392 7.2 -22.9°
Maximum altitude 00:14:16 60° 102° (ESE) 919 3.8 -22.7°
Enters shadow 00:15:38 45° 156° (SSE) 1,085 3.9 -22.6°
